User: anonymous   Login
Location: Newark
(49.4900°N, 20.6656°E)
Time: 06:26:47
(UTC+00:00)
Language:

STARLINK-1695 - Orbit

View from above orbital plane
View from above orbital plane
View from above satellite
View from above satellite

Ground track
Ground track

The orbit data is extracted from the following two-line orbital elements,

1 46329U 20062E   20339.91675926 -.01052777  00000-0 -55777-1 0  9999
2 46329  52.9999 339.4414 0001494  67.6073  89.4179 15.18042793 15255
Epoch (UTC): 04 December 2020 22:00:08
Eccentricity: 0.0001494
inclination: 52.9999°
perigee height: 511 km
apogee height: 513 km
right ascension of ascending node: 339.4414°
argument of perigee: 67.6073°
revolutions per day: 15.18042793
mean anomaly at epoch: 89.4179°
orbit number at epoch: 1525

The dashed part of the orbit path shows where the satellite is in the earth's shadow,  

DLR